VK2OU Weather Reports


Display with metric or nautical units.
time (UTC)temp
F
wind
direction
speed
MPH
gust
MPH
rain 1hr
in
rain 24hr
in
rain mn
in
humidity
%
barometer
mb
20260902071525 61 251 3.0 7.0 0.00 0.00 0.00 62
20260902070549 62 272 4.0 8.0 0.00 0.00 0.00 59
20260902065547 63 272 6.0 11.0 0.00 0.00 0.00 56
20260902064553 63 263 5.0 15.0 0.00 0.00 0.00 55
20260902063525 64 269 7.0 19.0 0.00 0.00 0.00 54
20260902062533 64 274 7.0 14.0 0.00 0.00 0.00 55
20260902061525 64 272 7.0 16.0 0.00 0.00 0.00 53
20260902060534 65 264 10.0 16.0 0.00 0.00 0.00 52
20260902055526 65 261 5.0 10.0 0.00 0.00 0.00 52
20260902054533 66 260 7.0 16.0 0.00 0.00 0.00 52
20260902053527 65 262 7.0 16.0 0.00 0.00 0.00 51
20260902052549 65 270 8.0 22.0 0.00 0.00 0.00 52
20260902051525 65 253 5.0 11.0 0.00 0.00 0.00 52
20260902050533 64 250 3.0 8.0 0.00 0.00 0.00 54
20260902045526 64 263 8.0 17.0 0.00 0.00 0.00 54
20260902044534 65 259 8.0 14.0 0.00 0.00 0.00 52
20260902043546 65 270 6.0 16.0 0.00 0.00 0.00 52
20260902042533 65 253 7.0 19.0 0.00 0.00 0.00 52
20260902041525 64 258 7.0 17.0 0.00 0.00 0.00 52
20260902040534 65 260 9.0 18.0 0.00 0.00 0.00 49
20260902035525 66 274 8.0 22.0 0.00 0.00 0.00 50
20260902034533 67 269 9.0 22.0 0.00 0.00 0.00 48
20260902033525 66 252 6.0 15.0 0.00 0.00 0.00 49
20260902032533 66 266 9.0 21.0 0.00 0.00 0.00 50
20260902031526 66 256 6.0 14.0 0.00 0.00 0.00 54
20260902030550 66 266 9.0 17.0 0.00 0.00 0.00 56
20260902025525 66 292 6.0 15.0 0.00 0.00 0.00 58
20260902024534 65 286 5.0 15.0 0.00 0.00 0.00 58
20260902023525 64 274 7.0 13.0 0.00 0.00 0.00 59
20260902022534 65 279 7.0 15.0 0.00 0.00 0.00 58
20260902021526 64 264 7.0 16.0 0.00 0.00 0.00 58
20260902020533 64 278 7.0 16.0 0.00 0.00 0.00 59
20260902015526 64 271 10.0 23.0 0.00 0.00 0.00 58
20260902014534 64 273 8.0 19.0 0.00 0.00 0.00 59
20260902013525 63 266 7.0 17.0 0.00 0.00 0.00 61
20260902012533 63 261 7.0 21.0 0.00 0.00 0.00 62
20260902011546 63 271 8.0 14.0 0.00 0.00 0.00 61
20260902010553 62 272 7.0 13.0 0.00 0.00 0.00 60
20260902005526 62 282 6.0 14.0 0.00 0.00 0.00 61
20260902004534 63 271 5.0 14.0 0.00 0.00 0.00 61
20260902003525 62 279 5.0 11.0 0.00 0.00 0.00 62
20260902002534 62 273 5.0 10.0 0.00 0.00 0.00 62
20260902001526 61 287 6.0 14.0 0.00 0.00 0.00 63
20260902000534 61 279 4.0 10.0 0.00 0.00 0.00 64
20260901235526 61 305 3.0 6.0 0.00 0.00 0.00 64
20260901234534 61 307 3.0 6.0 0.00 0.00 0.00 65
20260901233526 60 314 3.0 7.0 0.00 0.00 0.00 66
20260901232534 60 294 3.0 7.0 0.00 0.00 0.00 67
20260901231527 59 283 4.0 7.0 0.00 0.00 0.00 68
20260901230534 58 282 5.0 10.0 0.00 0.00 0.00 70
20260901225546 57 287 4.0 9.0 0.00 0.00 0.00 72
20260901224614 56 273 5.0 10.0 0.00 0.00 0.00 73
20260901223526 56 281 6.0 13.0 0.00 0.00 0.00 74
20260901222534 55 277 6.0 15.0 0.00 0.00 0.00 74
20260901221527 55 284 6.0 11.0 0.00 0.00 0.00 75
20260901220534 55 281 7.0 14.0 0.00 0.00 0.00 76
20260901215546 54 281 5.0 10.0 0.00 0.00 0.00 77
20260901214533 54 275 3.0 11.0 0.00 0.00 0.00 78
20260901213526 53 278 4.0 13.0 0.00 0.00 0.00 79
20260901212554 54 269 3.0 7.0 0.00 0.00 0.00 79
20260901211548 53 210 0.0 1.0 0.00 0.00 0.00 81
20260901210555 52 230 0.0 3.0 0.00 0.00 0.00 84
20260901205608 50 189 0.0 1.0 0.00 0.00 0.00 88
20260901204534 49 0.0 0.0 0.00 0.00 0.00 91
20260901203526 48 0.0 0.0 0.00 0.00 0.00 90
20260901202534 49 0.0 0.0 0.00 0.00 0.00 89
20260901201526 50 233 0.0 1.0 0.00 0.00 0.00 86
20260901200534 50 246 1.0 3.0 0.00 0.00 0.00 85
20260901195526 51 259 2.0 6.0 0.00 0.00 0.00 85
20260901194554 51 281 3.0 6.0 0.00 0.00 0.00 84
20260901193526 51 279 3.0 7.0 0.00 0.00 0.00 83
20260901192534 51 284 3.0 8.0 0.00 0.00 0.00 84
20260901191526 51 287 4.0 9.0 0.00 0.00 0.00 85
20260901190534 51 276 3.0 8.0 0.00 0.00 0.00 84
20260901185526 51 269 3.0 5.0 0.00 0.00 0.00 84
20260901184534 52 268 2.0 5.0 0.00 0.00 0.00 83
20260901183526 52 279 5.0 9.0 0.00 0.00 0.00 83
20260901182533 52 269 5.0 11.0 0.00 0.00 0.00 83
20260901181526 52 279 4.0 9.0 0.00 0.00 0.00 81
20260901180534 52 286 4.0 7.0 0.00 0.00 0.00 80
20260901175526 52 274 3.0 7.0 0.00 0.00 0.00 79
20260901174614 53 277 2.0 6.0 0.00 0.00 0.00 79
20260901173526 53 278 1.0 3.0 0.00 0.00 0.00 79
20260901172534 53 312 2.0 5.0 0.00 0.00 0.00 78
20260901171527 53 285 4.0 11.0 0.00 0.00 0.00 77
20260901170534 53 273 3.0 8.0 0.00 0.00 0.00 77
20260901165525 53 270 3.0 6.0 0.00 0.00 0.00 78
20260901164554 53 292 4.0 9.0 0.00 0.00 0.00 78
20260901163546 53 279 4.0 8.0 0.00 0.00 0.00 78
20260901162534 53 251 3.0 10.0 0.00 0.00 0.00 80
20260901161526 53 272 4.0 14.0 0.00 0.00 0.00 81
20260901160535 53 286 3.0 8.0 0.00 0.00 0.00 81
20260901155528 53 266 3.0 6.0 0.00 0.00 0.00 82
20260901154554 53 285 4.0 10.0 0.00 0.00 0.00 82
20260901153526 53 285 4.0 9.0 0.00 0.00 0.00 82
20260901152534 52 288 5.0 13.0 0.00 0.00 0.00 82
20260901151526 52 293 4.0 10.0 0.00 0.00 0.00 83
20260901150555 53 278 6.0 13.0 0.00 0.00 0.00 82
20260901145526 53 277 4.0 13.0 0.00 0.00 0.00 82
20260901144534 52 267 2.0 6.0 0.00 0.00 0.00 84
20260901143526 52 254 2.0 7.0 0.00 0.00 0.00 84
20260901142534 53 277 3.0 7.0 0.00 0.00 0.00 83
20260901141526 53 271 3.0 8.0 0.00 0.00 0.00 82
20260901140535 53 272 3.0 6.0 0.00 0.00 0.00 83
20260901135526 52 258 3.0 6.0 0.00 0.00 0.00 84
20260901134534 52 273 3.0 6.0 0.00 0.00 0.00 85
20260901133526 52 269 2.0 6.0 0.00 0.00 0.00 85
20260901132534 52 273 2.0 6.0 0.00 0.00 0.00 85
20260901131606 52 261 2.0 3.0 0.00 0.00 0.00 85
20260901130535 52 260 2.0 3.0 0.00 0.00 0.00 84
20260901125546 52 273 2.0 3.0 0.00 0.00 0.00 84
20260901124534 52 262 2.0 3.0 0.00 0.00 0.00 84
20260901123526 51 249 1.0 2.0 0.00 0.00 0.00 85
20260901122554 51 243 0.0 2.0 0.00 0.00 0.00 86
20260901121526 51 0.0 0.0 0.00 0.00 0.00 84
20260901120534 51 0.0 0.0 0.00 0.00 0.00 83
20260901115526 51 234 1.0 1.0 0.00 0.00 0.00 83
20260901114534 51 230 0.0 2.0 0.00 0.00 0.00 82
20260901113526 52 244 0.0 1.0 0.00 0.00 0.00 81
20260901112534 52 257 0.0 2.0 0.00 0.00 0.00 81
20260901111546 52 0.0 0.0 0.00 0.00 0.00 79
20260901110535 52 237 0.0 1.0 0.00 0.00 0.00 79
20260901105526 53 238 0.0 1.0 0.00 0.00 0.00 77
20260901104534 53 230 0.0 2.0 0.00 0.00 0.00 76
20260901103526 54 241 1.0 2.0 0.00 0.00 0.00 74
20260901102554 54 252 2.0 3.0 0.00 0.00 0.00 74
20260901101526 54 276 2.0 6.0 0.00 0.00 0.00 74
20260901100534 55 274 3.0 7.0 0.00 0.00 0.00 73
20260901095526 55 276 3.0 7.0 0.00 0.00 0.00 73
20260901094534 55 273 3.0 6.0 0.00 0.00 0.00 72
20260901093526 55 278 3.0 8.0 0.00 0.00 0.00 71
20260901092534 55 267 3.0 9.0 0.00 0.00 0.00 70
20260901091527 56 256 2.0 5.0 0.00 0.00 0.00 69
20260901090554 56 266 2.0 8.0 0.00 0.00 0.00 68
20260901085526 56 275 3.0 9.0 0.00 0.00 0.00 67
20260901084535 57 281 4.0 10.0 0.00 0.00 0.00 66
20260901083526 57 284 5.0 9.0 0.00 0.00 0.00 65
20260901082534 57 275 6.0 11.0 0.00 0.00 0.00 64
20260901081546 57 290 7.0 14.0 0.00 0.00 0.00 62
20260901080554 58 274 7.0 11.0 0.00 0.00 0.00 61
20260901075526 58 277 7.0 13.0 0.00 0.00 0.00 59
20260901074535 58 280 8.0 15.0 0.00 0.00 0.00 58
20260901073526 59 275 8.0 17.0 0.00 0.00 0.00 56
20260901072534 59 284 9.0 18.0 0.00 0.00 0.00 56